Window Rock, AZ

1:37 AM MDT on July 22, 2017 (GMT -0600)
Window Rock

Weather History for KRQE - February, 2013

Change the Weather History Date:

Sunday, February 24, 2013

  Actual Average Record
Temperature  
Mean Temperature 22 °F -  
Max Temperature 27 °F 48 °F 70 °F (1989)
Min Temperature 18 °F 19 °F -3 °F (1953)
Degree Days  
Heating Degree Days 42    
Moisture  
Dew Point 7 °F    
Average Humidity 54    
Maximum Humidity 86    
Minimum Humidity 30    
Precipitation  
Precipitation 0.00 in - - ()
Sea Level Pressure  
Sea Level Pressure 29.79 in    
Wind  
Wind Speed 11 mph (NNW)    
Max Wind Speed 20 mph    
Max Gust Speed 29 mph    
Visibility 9 miles    
Events Snow    
Averages and records for this station are not official NWS values.
T = Trace of Precipitation, MM = Missing Value Source: NWS Daily Summary

Daily Weather History Graph

Daily Weather History Graph

Search for Another Location

Airport or City:

Trip Planner

Search our weather history database for the weather conditions in past years. The results will help you decide how hot, cold, wet, or windy it might be!

Date:

Astronomy

Feb. 24, 2013 Rise Set
Actual Time 6:52 AM MST 6:07 PM MST
Civil Twilight 6:26 AM MST 6:32 PM MST
Nautical Twilight 5:56 AM MST 7:02 PM MST
Astronomical Twilight 5:27 AM MST 7:32 PM MST
Moon 5:21 PM MST (2/24) 5:50 AM MST (2/24)
Length of Visible Light 12h 06m
Length of Day
11h 15m
Waxing Gibbous, 99% of the Moon is Illuminated
Feb 24
Waxing Gibbous
Feb 25
Full
Mar 4
Last Quarter
Mar 11
New
Mar 19
First Quarter

Hourly Weather History & Observations

Time (MST) Temp. Windchill Dew Point Humidity Pressure Visibility Wind Dir Wind Speed Gust Speed Precip Events Conditions
12:53 AM 24.1 °F 14.4 °F 17.1 °F 75% 29.75 in 10.0 mi West 9.2 mph - N/A   Overcast
1:53 AM 23.0 °F 11.7 °F 14.0 °F 68% 29.75 in 10.0 mi North 11.5 mph - N/A   Overcast
2:53 AM 21.0 °F 7.6 °F 15.1 °F 78% 29.74 in 6.0 mi North 15.0 mph 21.9 mph 0.00 in Snow Light Snow
3:53 AM 19.9 °F 14.9 °F 7.0 °F 57% 29.71 in 10.0 mi NNW 3.5 mph - 0.00 in   Overcast
4:53 AM 19.9 °F 9.3 °F 3.9 °F 50% 29.71 in 10.0 mi North 9.2 mph - N/A   Overcast
5:53 AM 19.0 °F - 3.9 °F 52% 29.72 in 10.0 mi North - - N/A   Overcast
6:53 AM 18.0 °F 6.1 °F 1.9 °F 50% 29.76 in 10.0 mi North 10.4 mph - N/A   Overcast
7:53 AM 18.0 °F 6.9 °F 3.0 °F 52% 29.75 in 10.0 mi North 9.2 mph - N/A   Overcast
8:53 AM 19.9 °F 7.9 °F 1.9 °F 46% 29.75 in 10.0 mi NNE 11.5 mph - N/A   Overcast
9:53 AM 21.9 °F 8.2 °F 1.9 °F 42% 29.77 in 10.0 mi NNE 16.1 mph - N/A   Mostly Cloudy
10:53 AM 25.0 °F 17.1 °F 3.0 °F 39% 29.76 in 10.0 mi Variable 6.9 mph 20.7 mph N/A   Clear
11:53 AM 27.0 °F 15.2 °F 1.0 °F 33% 29.77 in 10.0 mi North 15.0 mph 23.0 mph N/A   Partly Cloudy
12:53 PM 27.0 °F 17.3 °F 1.0 °F 33% 29.75 in 10.0 mi North 10.4 mph 21.9 mph N/A   Scattered Clouds
1:53 PM 27.0 °F 15.2 °F 1.0 °F 33% 29.76 in 10.0 mi NNW 15.0 mph 28.8 mph N/A   Partly Cloudy
2:53 PM 26.1 °F 14.0 °F 3.0 °F 37% 29.78 in 10.0 mi North 15.0 mph 21.9 mph N/A   Mostly Cloudy
3:53 PM 27.0 °F 15.2 °F -0.9 °F 30% 29.81 in 10.0 mi North 15.0 mph - N/A   Partly Cloudy
4:53 PM 27.0 °F 13.5 °F 1.9 °F 34% 29.83 in 10.0 mi NW 19.6 mph 25.3 mph N/A   Scattered Clouds
5:53 PM 23.0 °F 9.6 °F 8.1 °F 53% 29.88 in 10.0 mi NNW 16.1 mph 21.9 mph N/A   Partly Cloudy
6:23 PM 21.2 °F 10.1 °F 15.8 °F 80% 29.86 in 2.5 mi NNW 10.4 mph 19.6 mph 0.00 in Snow Light Snow
6:29 PM 19.4 °F 8.6 °F 15.8 °F 86% 29.87 in 3.0 mi NNW 9.2 mph - 0.00 in Snow Light Snow
6:53 PM 19.0 °F 12.3 °F 14.0 °F 81% 29.93 in 10.0 mi NW 4.6 mph - 0.00 in   Clear
7:53 PM 19.9 °F 9.3 °F 12.0 °F 71% 29.93 in 10.0 mi NNW 9.2 mph - N/A   Clear